THORAD AGENA D DEB, 4911

Orbit data source: Space-Track

THORAD AGENA D DEB, 4911 is space debris in SSO originally from a launch on Wed, 08 Apr 1970 UTC launched from the Air Force Western Test Range (AFWTR). Debris objects in space refer to the collection of defunct objects orbiting the Earth. Examples of debris include non-operational satellites, rocket bodies, and fragments generated from explosions, collisions, or faulty payload assembly.

Loading next visibility...
Identifier
4911, 1970-025FH
Orbit
SSO
Country
Flag of USUS
Related business
Manufacturer
Unknown
Mission
Spacecraft
Bus & Motor
Unknown
Mass
Unknown
Launch date (UTC)
1970-04-08 (56 years ago)
Launch vehicle
Unknown
Launch site
Air Force Western Test Range (AFWTR)
Object type
Payload
Rocket body
Debris
Shape & HBR
Unknown shape, 0.1 m
Radar Cross Section
Small (<0.1 m²)

Expand to show TLE details & history
Last TLE update: 12 hours ago

TLE from 12 hours ago
0 THORAD AGENA D DEB
1  4911U 70025FH  25299.52690066  .00003391  00000-0  12857-2 0  9991
2  4911  99.9863 140.7530 0060566 256.0319 103.4119 14.30916007838166
Epoch: 2025-10-26T12:38Z
TLE epoch observation values (Epoch: 2025-10-26T12:38:44.217Z)
Latitude
-0.00001°
Longitude
-84.07306°
Altitude
801.874 km
Speed
7.447 km/s
True Right ascension
09h 23m 00s
True Declination
0° 00' 00"
Sunlit
Object was in daylight at epoch
Visualization orbit readout
Latitude
Unknown
Longitude
Unknown
Altitude
Unknown
Speed
Unknown
Apparent Right ascension
Unknown
Apparent Declination
Unknown
Sunlit
N/A
Visualization observer readout
Local Sidereal Time
20:20:03
Azimuth
Unknown
Elevation
Unknown
Doppler factor
Unknown
Orbital elements
Apogee altitude
829.27 km
Perigee altitude
742.491 km
Semi-major axis
7,164.017 km
Eccentricity
0.00606
Inclination
99.9863°
RAAN
140.753°
Arg. of periapsis
256.0319°
True anomaly
104.08581°
Mean anomaly
103.4119°
Eccentric anomaly
103.74897°
Mean motion
3.57938 °/min
Orbital period
100.58 mins
BSTAR
0.0012857
Loading maneuver chart data...
Computing Atmospheric mass density...

Documentation

Showing up to 5 results
|